This is the latest recevied weather packets stored in our database for station/object W4DHW-4. If no packets are shown the sender has not sent any weather packets the latest 10 day(s).
| Time | Temp. | Humidity | Pressure | Rain* | Wind** | Luminosity | Snow |
|---|---|---|---|---|---|---|---|
| 1777830562 | 14.44° C | 35% | 1017.9 hPa | 0 mm | - | 759 W/m² | - |
| 1777830261 | 13.89° C | 35% | 1018.2 hPa | 0 mm | - | 760 W/m² | - |
| 1777829960 | 13.89° C | 38% | 1018.2 hPa | 0 mm | - | 744 W/m² | - |
| 1777829657 | 13.33° C | 36% | 1017.9 hPa | 0 mm | - | 768 W/m² | - |
| 1777829354 | 13.33° C | 38% | 1018.3 hPa | 0 mm | - | 752 W/m² | - |
| 1777829051 | 13.33° C | 38% | 1018.3 hPa | 0 mm | - | 704 W/m² | - |
| 1777828747 | 13.89° C | 36% | 1018.3 hPa | 0 mm | - | 738 W/m² | - |
| 1777828444 | 12.78° C | 40% | 1018.4 hPa | 0 mm | - | 769 W/m² | - |
| 1777828141 | 12.78° C | 38% | 1018.5 hPa | 0 mm | - | 751 W/m² | - |
| 1777827838 | 12.78° C | 39% | 1018.3 hPa | 0 mm | - | 760 W/m² | - |
| 1777827535 | 13.33° C | 40% | 1018.6 hPa | 0 mm | - | 781 W/m² | - |
| 1777827232 | 12.78° C | 37% | 1018.5 hPa | 0 mm | - | 788 W/m² | - |
| 1777826928 | 12.78° C | 38% | 1018.8 hPa | 0 mm | - | 782 W/m² | - |
| 1777826626 | 12.22° C | 40% | 1018.7 hPa | 0 mm | - | 776 W/m² | - |
| 1777826321 | 12.78° C | 38% | 1018.9 hPa | 0 mm | - | 768 W/m² | - |
| 1777826020 | 12.22° C | 39% | 1019 hPa | 0 mm | - | 764 W/m² | - |
| 1777825716 | 11.67° C | 40% | 1019.4 hPa | 0 mm | - | 761 W/m² | - |
| 1777825414 | 12.22° C | 39% | 1019 hPa | 0 mm | - | 766 W/m² | - |
| 1777825111 | 11.67° C | 40% | 1018.9 hPa | 0 mm | - | 777 W/m² | - |
| 1777824807 | 11.67° C | 41% | 1019.3 hPa | 0 mm | - | 790 W/m² | - |
| 1777824504 | 12.22° C | 40% | 1019.3 hPa | 0 mm | - | 787 W/m² | - |
| 1777824200 | 11.67° C | 43% | 1019.5 hPa | 0 mm | - | 793 W/m² | - |
| 1777823896 | 11.67° C | 39% | 1019.5 hPa | 0 mm | - | 789 W/m² | - |
| 1777823594 | 11.67° C | 39% | 1019.7 hPa | 0 mm | - | 855 W/m² | - |
| 1777823290 | 12.22° C | 39% | 1019.8 hPa | 0 mm | - | 835 W/m² | - |
* Rain latest hour (hover to see other rain measurements)
** Current wind speed in m/s (hover to see current wind gust speed)